TimePDT,TemperatureF,Dew PointF,Humidity,Sea Level PressureIn,VisibilityMPH,Wind Direction,Wind SpeedMPH,Gust SpeedMPH,PrecipitationIn,Events,Conditions,WindDirDegrees,DateUTC
12:53 AM,66.0,26.1,22,29.90,10.0,Calm,Calm,-,N/A,,Clear,0,2012-10-27 07:53:00
1:53 AM,64.0,27.0,25,29.88,10.0,Calm,Calm,-,N/A,,Clear,0,2012-10-27 08:53:00
2:53 AM,63.0,32.0,31,29.88,10.0,Calm,Calm,-,N/A,,Clear,0,2012-10-27 09:53:00
3:53 AM,61.0,33.1,35,29.87,10.0,Calm,Calm,-,N/A,,Clear,0,2012-10-27 10:53:00
4:53 AM,59.0,33.1,38,29.87,10.0,Calm,Calm,-,N/A,,Clear,0,2012-10-27 11:53:00
5:53 AM,57.0,35.1,44,29.87,10.0,Calm,Calm,-,N/A,,Clear,0,2012-10-27 12:53:00
6:53 AM,57.9,33.1,39,29.87,10.0,Variable,3.5,-,N/A,,Clear,0,2012-10-27 13:53:00
7:53 AM,61.0,36.0,39,29.88,10.0,Calm,Calm,-,N/A,,Clear,0,2012-10-27 14:53:00
8:53 AM,71.1,35.1,27,29.89,10.0,Calm,Calm,-,N/A,,Clear,0,2012-10-27 15:53:00
9:53 AM,81.0,35.1,19,29.88,10.0,NW,5.8,-,N/A,,Clear,310,2012-10-27 16:53:00
10:53 AM,84.9,24.1,11,29.87,10.0,NW,6.9,-,N/A,,Clear,310,2012-10-27 17:53:00
11:53 AM,89.1,25.0,10,29.86,10.0,Variable,4.6,-,N/A,,Clear,0,2012-10-27 18:53:00
12:53 PM,93.0,26.1,9,29.84,10.0,Variable,3.5,-,N/A,,Clear,0,2012-10-27 19:53:00
1:53 PM,93.9,25.0,8,29.81,10.0,Calm,Calm,-,N/A,,Clear,0,2012-10-27 20:53:00
2:53 PM,93.9,30.0,10,29.79,10.0,South,8.1,-,N/A,,Clear,190,2012-10-27 21:53:00
3:53 PM,93.9,30.9,11,29.79,10.0,SSW,8.1,-,N/A,,Clear,210,2012-10-27 22:53:00
4:53 PM,91.0,28.9,11,29.79,10.0,WNW,4.6,-,N/A,,Clear,300,2012-10-27 23:53:00
5:53 PM,84.0,33.1,16,29.80,10.0,Variable,3.5,-,N/A,,Clear,0,2012-10-28 00:53:00
6:53 PM,80.1,28.0,15,29.83,10.0,Calm,Calm,-,N/A,,Clear,0,2012-10-28 01:53:00
7:53 PM,75.0,36.0,24,29.85,10.0,Calm,Calm,-,N/A,,Clear,0,2012-10-28 02:53:00
9:53 PM,70.0,36.0,29,29.88,10.0,East,3.5,-,N/A,,Clear,80,2012-10-28 04:53:00
10:53 PM,68.0,37.9,33,29.90,10.0,Calm,Calm,-,N/A,,Clear,0,2012-10-28 05:53:00
11:53 PM,64.9,39.0,39,29.90,10.0,Calm,Calm,-,N/A,,Clear,0,2012-10-28 06:53:00